This is the latest recevied weather packets stored in our database for station/object EA2MKR. If no packets are shown the sender has not sent any weather packets the latest 10 day(s).
| Time | Temp. | Humidity | Pressure | Rain* | Wind** | Luminosity | Snow |
|---|---|---|---|---|---|---|---|
| 1777905034 | 12.78° C | 82% | 949.5 hPa | 0 mm | - | - | - |
| 1777904732 | 12.78° C | 82% | 949.7 hPa | 0 mm | - | - | - |
| 1777904432 | 12.78° C | 85% | 949.8 hPa | 0.25 mm | - | - | - |
| 1777904131 | 12.22° C | 83% | 949.9 hPa | 0.76 mm | - | - | - |
| 1777903831 | 11.67° C | 84% | 949.7 hPa | 1.27 mm | - | - | - |
| 1777903532 | 11.67° C | 86% | 949.6 hPa | 1.52 mm | - | - | - |
| 1777903332 | 11.11° C | 88% | 949.5 hPa | 2.29 mm | - | - | - |
| 1777902932 | 11.11° C | 89% | 949.5 hPa | 2.54 mm | - | - | - |
| 1777902732 | 11.11° C | 90% | 949.5 hPa | 3.3 mm | - | - | - |
| 1777902332 | 10.56° C | 90% | 949.5 hPa | 3.81 mm | - | - | - |
| 1777902132 | 10.56° C | 90% | 949.5 hPa | 4.32 mm | - | - | - |
| 1777901732 | 10.56° C | 92% | 949.5 hPa | 5.08 mm | - | - | - |
| 1777901532 | 10.56° C | 91% | 949.6 hPa | 7.11 mm | - | - | - |
| 1777901131 | 10° C | 90% | 949.7 hPa | 8.13 mm | - | - | - |
| 1777900830 | 10° C | 89% | 950 hPa | 8.13 mm | - | - | - |
| 1777900532 | 10° C | 90% | 950 hPa | 7.62 mm | - | - | - |
| 1777900231 | 10° C | 91% | 950.3 hPa | 7.11 mm | - | - | - |
| 1777899932 | 10° C | 91% | 950.3 hPa | 6.86 mm | - | - | - |
| 1777899732 | 10° C | 92% | 950.4 hPa | 6.1 mm | - | - | - |
| 1777899330 | 10° C | 92% | 950.5 hPa | 5.84 mm | - | - | - |
| 1777899132 | 10° C | 92% | 950.5 hPa | 5.08 mm | - | - | - |
| 1777898732 | 10° C | 92% | 950.5 hPa | 4.57 mm | - | - | - |
| 1777898431 | 10° C | 92% | 950.5 hPa | 4.32 mm | - | - | - |
| 1777898131 | 10° C | 91% | 950.5 hPa | 3.3 mm | - | - | - |
| 1777897831 | 10.56° C | 91% | 950.6 hPa | 1.52 mm | - | - | - |
* Rain latest hour (hover to see other rain measurements)
** Current wind speed in m/s (hover to see current wind gust speed)